owner,sensor,date,latitude,longitude,vertical_datum,mass_concentration_of_oxygen_in_sea_water,qcFlag 
DISL,ioos:station:DISL:BSCA:1,2016-03-01T00:00:00Z,30.3288,-87.8293,2.003,9.94,1111122 
DISL,ioos:station:DISL:BSCA:1,2016-03-01T00:30:00Z,30.3288,-87.8293,1.99,10.09,1111122 
DISL,ioos:station:DISL:BSCA:1,2016-03-01T01:00:00Z,30.3288,-87.8293,1.958,9.86,1111122 
DISL,ioos:station:DISL:BSCA:1,2016-03-01T01:30:00Z,30.3288,-87.8293,1.936,10.5,1111122 
DISL,ioos:station:DISL:BSCA:1,2016-03-01T02:00:00Z,30.3288,-87.8293,1.909,10.29,1111122 
DISL,ioos:station:DISL:BSCA:1,2016-03-01T02:30:00Z,30.3288,-87.8293,1.884,10.72,1111122 
DISL,ioos:station:DISL:BSCA:1,2016-03-01T03:00:00Z,30.3288,-87.8293,1.865,10.83,1111122 
DISL,ioos:station:DISL:BSCA:1,2016-03-01T03:30:00Z,30.3288,-87.8293,1.842,10.9,1111122 
DISL,ioos:station:DISL:BSCA:1,2016-03-01T04:00:00Z,30.3288,-87.8293,1.825,10.84,1111122 
DISL,ioos:station:DISL:BSCA:1,2016-03-01T04:30:00Z,30.3288,-87.8293,1.815,10.66,1111122 
DISL,ioos:station:DISL:BSCA:1,2016-03-01T05:00:00Z,30.3288,-87.8293,1.801,10.8,1111122 
DISL,ioos:station:DISL:BSCA:1,2016-03-01T05:30:00Z,30.3288,-87.8293,1.792,10.8,1111122 
DISL,ioos:station:DISL:BSCA:1,2016-03-01T06:00:00Z,30.3288,-87.8293,1.781,10.79,1111122 
DISL,ioos:station:DISL:BSCA:1,2016-03-01T06:30:00Z,30.3288,-87.8293,1.766,10.8,1111122 
DISL,ioos:station:DISL:BSCA:1,2016-03-01T07:00:00Z,30.3288,-87.8293,1.783,10.77,1111122 
DISL,ioos:station:DISL:BSCA:1,2016-03-01T07:30:00Z,30.3288,-87.8293,1.781,11.0,1111122 
DISL,ioos:station:DISL:BSCA:1,2016-03-01T08:00:00Z,30.3288,-87.8293,1.786,10.91,1111122 
DISL,ioos:station:DISL:BSCA:1,2016-03-01T08:30:00Z,30.3288,-87.8293,1.773,10.98,1111122 
DISL,ioos:station:DISL:BSCA:1,2016-03-01T09:00:00Z,30.3288,-87.8293,1.783,10.6,1111122 
DISL,ioos:station:DISL:BSCA:1,2016-03-01T09:30:00Z,30.3288,-87.8293,1.795,10.9,1111122 
DISL,ioos:station:DISL:BSCA:1,2016-03-01T10:00:00Z,30.3288,-87.8293,1.792,10.56,1111122 
DISL,ioos:station:DISL:BSCA:1,2016-03-01T10:30:00Z,30.3288,-87.8293,1.803,10.48,1111122 
DISL,ioos:station:DISL:BSCA:1,2016-03-01T11:00:00Z,30.3288,-87.8293,1.812,10.47,1111122 
DISL,ioos:station:DISL:BSCA:1,2016-03-01T11:30:00Z,30.3288,-87.8293,1.828,10.7,1111122 
DISL,ioos:station:DISL:BSCA:1,2016-03-01T12:00:00Z,30.3288,-87.8293,1.844,10.6,1111122 
DISL,ioos:station:DISL:BSCA:1,2016-03-01T12:30:00Z,30.3288,-87.8293,1.866,9.82,1111122 
DISL,ioos:station:DISL:BSCA:1,2016-03-01T13:00:00Z,30.3288,-87.8293,1.894,9.46,1111122 
DISL,ioos:station:DISL:BSCA:1,2016-03-01T13:30:00Z,30.3288,-87.8293,1.91,7.16,1111122 
DISL,ioos:station:DISL:BSCA:1,2016-03-01T14:00:00Z,30.3288,-87.8293,1.934,7.35,1111122 
DISL,ioos:station:DISL:BSCA:1,2016-03-01T14:30:00Z,30.3288,-87.8293,1.952,8.42,1111122 
DISL,ioos:station:DISL:BSCA:1,2016-03-01T15:00:00Z,30.3288,-87.8293,1.968,8.67,1111122 
DISL,ioos:station:DISL:BSCA:1,2016-03-01T15:30:00Z,30.3288,-87.8293,1.998,8.91,1111122 
DISL,ioos:station:DISL:BSCA:1,2016-03-01T16:00:00Z,30.3288,-87.8293,2.011,9.16,1111122 
DISL,ioos:station:DISL:BSCA:1,2016-03-01T16:30:00Z,30.3288,-87.8293,2.045,9.52,1111122 
DISL,ioos:station:DISL:BSCA:1,2016-03-01T17:00:00Z,30.3288,-87.8293,2.063,10.0,1111122 
DISL,ioos:station:DISL:BSCA:1,2016-03-01T17:30:00Z,30.3288,-87.8293,2.104,10.4,1111122 
DISL,ioos:station:DISL:BSCA:1,2016-03-01T18:00:00Z,30.3288,-87.8293,2.12,10.48,1111122 
DISL,ioos:station:DISL:BSCA:1,2016-03-01T18:30:00Z,30.3288,-87.8293,2.137,10.06,1111122 
DISL,ioos:station:DISL:BSCA:1,2016-03-01T19:00:00Z,30.3288,-87.8293,2.164,10.27,1111122 
DISL,ioos:station:DISL:BSCA:1,2016-03-01T19:30:00Z,30.3288,-87.8293,2.171,10.39,1111122 
DISL,ioos:station:DISL:BSCA:1,2016-03-01T20:00:00Z,30.3288,-87.8293,2.186,10.91,1111122 
DISL,ioos:station:DISL:BSCA:1,2016-03-01T20:30:00Z,30.3288,-87.8293,2.195,10.86,1111122 
DISL,ioos:station:DISL:BSCA:1,2016-03-01T21:00:00Z,30.3288,-87.8293,2.196,11.07,1111122 
DISL,ioos:station:DISL:BSCA:1,2016-03-01T21:30:00Z,30.3288,-87.8293,2.202,10.76,1111122 
DISL,ioos:station:DISL:BSCA:1,2016-03-01T22:00:00Z,30.3288,-87.8293,2.193,11.22,1111122 
DISL,ioos:station:DISL:BSCA:1,2016-03-01T22:30:00Z,30.3288,-87.8293,2.188,10.97,1111122 
DISL,ioos:station:DISL:BSCA:1,2016-03-01T23:00:00Z,30.3288,-87.8293,2.179,11.92,1111122 
DISL,ioos:station:DISL:BSCA:1,2016-03-01T23:30:00Z,30.3288,-87.8293,2.169,11.85,1111122 
DISL,ioos:station:DISL:BSCA:1,2016-03-02T00:00:00Z,30.3288,-87.8293,2.147,11.63,1111122 
DISL,ioos:station:DISL:BSCA:1,2016-03-02T00:30:00Z,30.3288,-87.8293,2.142,11.68,1111122 
DISL,ioos:station:DISL:BSCA:1,2016-03-02T01:00:00Z,30.3288,-87.8293,2.129,11.81,1111122 
DISL,ioos:station:DISL:BSCA:1,2016-03-02T01:30:00Z,30.3288,-87.8293,2.125,11.75,1111122 
DISL,ioos:station:DISL:BSCA:1,2016-03-02T02:00:00Z,30.3288,-87.8293,2.111,11.76,1111122 
DISL,ioos:station:DISL:BSCA:1,2016-03-02T02:30:00Z,30.3288,-87.8293,2.096,11.72,1111122 
DISL,ioos:station:DISL:BSCA:1,2016-03-02T03:00:00Z,30.3288,-87.8293,2.028,11.79,1111122 
DISL,ioos:station:DISL:BSCA:1,2016-03-02T03:30:00Z,30.3288,-87.8293,2.131,11.79,1111122 
DISL,ioos:station:DISL:BSCA:1,2016-03-02T04:00:00Z,30.3288,-87.8293,2.082,11.72,1111122 
DISL,ioos:station:DISL:BSCA:1,2016-03-02T04:30:00Z,30.3288,-87.8293,2.029,11.71,1111122 
DISL,ioos:station:DISL:BSCA:1,2016-03-02T05:00:00Z,30.3288,-87.8293,1.989,11.47,1111122 
DISL,ioos:station:DISL:BSCA:1,2016-03-02T05:30:00Z,30.3288,-87.8293,2.117,11.33,1111122 
DISL,ioos:station:DISL:BSCA:1,2016-03-02T06:00:00Z,30.3288,-87.8293,2.063,11.22,1111122 
DISL,ioos:station:DISL:BSCA:1,2016-03-02T06:30:00Z,30.3288,-87.8293,2.056,11.21,1111122 
DISL,ioos:station:DISL:BSCA:1,2016-03-02T07:00:00Z,30.3288,-87.8293,1.963,11.12,1111122 
DISL,ioos:station:DISL:BSCA:1,2016-03-02T07:30:00Z,30.3288,-87.8293,1.906,10.98,1111122 
DISL,ioos:station:DISL:BSCA:1,2016-03-02T08:00:00Z,30.3288,-87.8293,1.867,10.91,1111122 
DISL,ioos:station:DISL:BSCA:1,2016-03-02T08:30:00Z,30.3288,-87.8293,1.877,10.81,1111122 
DISL,ioos:station:DISL:BSCA:1,2016-03-02T09:00:00Z,30.3288,-87.8293,1.846,10.83,1111122 
DISL,ioos:station:DISL:BSCA:1,2016-03-02T09:30:00Z,30.3288,-87.8293,1.8,10.76,1111122 
DISL,ioos:station:DISL:BSCA:1,2016-03-02T10:00:00Z,30.3288,-87.8293,1.751,10.57,1111122 
DISL,ioos:station:DISL:BSCA:1,2016-03-02T10:30:00Z,30.3288,-87.8293,1.694,10.32,1111122 
DISL,ioos:station:DISL:BSCA:1,2016-03-02T11:00:00Z,30.3288,-87.8293,1.668,10.19,1111122 
DISL,ioos:station:DISL:BSCA:1,2016-03-02T11:30:00Z,30.3288,-87.8293,1.657,10.13,1111122 
DISL,ioos:station:DISL:BSCA:1,2016-03-02T12:00:00Z,30.3288,-87.8293,1.634,10.25,1111122 
DISL,ioos:station:DISL:BSCA:1,2016-03-02T12:30:00Z,30.3288,-87.8293,1.631,10.0,1111122 
DISL,ioos:station:DISL:BSCA:1,2016-03-02T13:00:00Z,30.3288,-87.8293,1.636,10.04,1111122 
DISL,ioos:station:DISL:BSCA:1,2016-03-02T13:30:00Z,30.3288,-87.8293,1.64,10.11,1111122 
DISL,ioos:station:DISL:BSCA:1,2016-03-02T14:00:00Z,30.3288,-87.8293,1.663,10.15,1111122 
DISL,ioos:station:DISL:BSCA:1,2016-03-02T14:30:00Z,30.3288,-87.8293,1.69,10.02,1111122 
DISL,ioos:station:DISL:BSCA:1,2016-03-02T15:00:00Z,30.3288,-87.8293,1.716,10.1,1111122 
DISL,ioos:station:DISL:BSCA:1,2016-03-02T15:30:00Z,30.3288,-87.8293,1.759,10.19,1111122 
DISL,ioos:station:DISL:BSCA:1,2016-03-02T16:00:00Z,30.3288,-87.8293,1.766,10.09,1111122 
DISL,ioos:station:DISL:BSCA:1,2016-03-02T16:30:00Z,30.3288,-87.8293,1.783,10.32,1111122 
DISL,ioos:station:DISL:BSCA:1,2016-03-02T17:00:00Z,30.3288,-87.8293,1.813,10.31,1111122 
DISL,ioos:station:DISL:BSCA:1,2016-03-02T17:30:00Z,30.3288,-87.8293,1.861,10.2,1111122 
DISL,ioos:station:DISL:BSCA:1,2016-03-02T18:00:00Z,30.3288,-87.8293,1.892,10.26,1111122 
DISL,ioos:station:DISL:BSCA:1,2016-03-02T18:30:00Z,30.3288,-87.8293,1.995,10.16,1111122 
DISL,ioos:station:DISL:BSCA:1,2016-03-02T19:00:00Z,30.3288,-87.8293,2.013,10.0,1111122 
DISL,ioos:station:DISL:BSCA:1,2016-03-02T19:30:00Z,30.3288,-87.8293,2.016,9.86,1111122 
DISL,ioos:station:DISL:BSCA:1,2016-03-02T20:00:00Z,30.3288,-87.8293,2.059,10.14,1111122 
DISL,ioos:station:DISL:BSCA:1,2016-03-02T20:30:00Z,30.3288,-87.8293,2.077,10.28,1111122 
DISL,ioos:station:DISL:BSCA:1,2016-03-02T21:00:00Z,30.3288,-87.8293,2.089,10.26,1111122 
DISL,ioos:station:DISL:BSCA:1,2016-03-02T21:30:00Z,30.3288,-87.8293,2.092,10.62,1111122 
DISL,ioos:station:DISL:BSCA:1,2016-03-02T22:00:00Z,30.3288,-87.8293,2.081,10.84,1111122 
DISL,ioos:station:DISL:BSCA:1,2016-03-02T22:30:00Z,30.3288,-87.8293,2.074,10.82,1111122 
DISL,ioos:station:DISL:BSCA:1,2016-03-02T23:00:00Z,30.3288,-87.8293,2.056,10.35,1111122 
DISL,ioos:station:DISL:BSCA:1,2016-03-02T23:30:00Z,30.3288,-87.8293,2.068,10.04,1111122 
DISL,ioos:station:DISL:BSCA:1,2016-03-03T00:00:00Z,30.3288,-87.8293,2.063,9.55,1111122 
DISL,ioos:station:DISL:BSCA:1,2016-03-03T00:30:00Z,30.3288,-87.8293,2.057,9.8,1111122 
DISL,ioos:station:DISL:BSCA:1,2016-03-03T01:00:00Z,30.3288,-87.8293,2.046,9.86,1111122 
DISL,ioos:station:DISL:BSCA:1,2016-03-03T01:30:00Z,30.3288,-87.8293,2.006,10.17,1111122 
DISL,ioos:station:DISL:BSCA:1,2016-03-03T02:00:00Z,30.3288,-87.8293,1.99,9.37,1111122 
DISL,ioos:station:DISL:BSCA:1,2016-03-03T02:30:00Z,30.3288,-87.8293,1.962,9.42,1111122 
DISL,ioos:station:DISL:BSCA:1,2016-03-03T03:00:00Z,30.3288,-87.8293,1.935,9.62,1111122 
DISL,ioos:station:DISL:BSCA:1,2016-03-03T03:30:00Z,30.3288,-87.8293,1.918,9.6,1111122 
DISL,ioos:station:DISL:BSCA:1,2016-03-03T04:00:00Z,30.3288,-87.8293,1.894,9.89,1111122 
DISL,ioos:station:DISL:BSCA:1,2016-03-03T04:30:00Z,30.3288,-87.8293,1.878,9.78,1111122 
DISL,ioos:station:DISL:BSCA:1,2016-03-03T05:00:00Z,30.3288,-87.8293,1.85,9.88,1111122 
DISL,ioos:station:DISL:BSCA:1,2016-03-03T05:30:00Z,30.3288,-87.8293,1.823,9.9,1111122 
DISL,ioos:station:DISL:BSCA:1,2016-03-03T06:00:00Z,30.3288,-87.8293,1.8,9.11,1111122 
DISL,ioos:station:DISL:BSCA:1,2016-03-03T06:30:00Z,30.3288,-87.8293,1.783,8.91,1111122 
DISL,ioos:station:DISL:BSCA:1,2016-03-03T07:00:00Z,30.3288,-87.8293,1.765,9.53,1111122 
DISL,ioos:station:DISL:BSCA:1,2016-03-03T07:30:00Z,30.3288,-87.8293,1.75,9.18,1111122 
DISL,ioos:station:DISL:BSCA:1,2016-03-03T08:00:00Z,30.3288,-87.8293,1.74,9.63,1111122 
DISL,ioos:station:DISL:BSCA:1,2016-03-03T08:30:00Z,30.3288,-87.8293,1.727,9.34,1111122 
DISL,ioos:station:DISL:BSCA:1,2016-03-03T09:00:00Z,30.3288,-87.8293,1.717,9.03,1111122 
DISL,ioos:station:DISL:BSCA:1,2016-03-03T09:30:00Z,30.3288,-87.8293,1.711,9.43,1111122 
DISL,ioos:station:DISL:BSCA:1,2016-03-03T10:00:00Z,30.3288,-87.8293,1.701,9.12,1111122 
DISL,ioos:station:DISL:BSCA:1,2016-03-03T10:30:00Z,30.3288,-87.8293,1.695,9.13,1111122 
DISL,ioos:station:DISL:BSCA:1,2016-03-03T11:00:00Z,30.3288,-87.8293,1.707,8.83,1111122 
DISL,ioos:station:DISL:BSCA:1,2016-03-03T11:30:00Z,30.3288,-87.8293,1.72,8.96,1111122 
DISL,ioos:station:DISL:BSCA:1,2016-03-03T12:00:00Z,30.3288,-87.8293,1.757,8.77,1111122 
DISL,ioos:station:DISL:BSCA:1,2016-03-03T12:30:00Z,30.3288,-87.8293,1.775,8.85,1111122 
DISL,ioos:station:DISL:BSCA:1,2016-03-03T13:00:00Z,30.3288,-87.8293,1.816,9.11,1111122 
DISL,ioos:station:DISL:BSCA:1,2016-03-03T13:30:00Z,30.3288,-87.8293,1.855,9.05,1111122 
DISL,ioos:station:DISL:BSCA:1,2016-03-03T14:00:00Z,30.3288,-87.8293,1.866,9.5,1111122 
DISL,ioos:station:DISL:BSCA:1,2016-03-03T14:30:00Z,30.3288,-87.8293,1.885,9.68,1111122 
DISL,ioos:station:DISL:BSCA:1,2016-03-03T15:00:00Z,30.3288,-87.8293,1.899,9.54,1111122 
DISL,ioos:station:DISL:BSCA:1,2016-03-03T15:30:00Z,30.3288,-87.8293,1.911,9.53,1111122 
DISL,ioos:station:DISL:BSCA:1,2016-03-03T16:00:00Z,30.3288,-87.8293,1.978,9.41,1111122 
DISL,ioos:station:DISL:BSCA:1,2016-03-03T16:30:00Z,30.3288,-87.8293,2.024,9.16,1111122 
DISL,ioos:station:DISL:BSCA:1,2016-03-03T17:00:00Z,30.3288,-87.8293,2.045,9.04,1111122 
DISL,ioos:station:DISL:BSCA:1,2016-03-03T17:30:00Z,30.3288,-87.8293,2.055,8.94,1111122 
DISL,ioos:station:DISL:BSCA:1,2016-03-03T18:00:00Z,30.3288,-87.8293,2.014,9.25,1111122 
DISL,ioos:station:DISL:BSCA:1,2016-03-03T18:30:00Z,30.3288,-87.8293,2.03,8.71,1111122 
DISL,ioos:station:DISL:BSCA:1,2016-03-03T19:00:00Z,30.3288,-87.8293,2.011,8.38,1111122 
DISL,ioos:station:DISL:BSCA:1,2016-03-03T19:30:00Z,30.3288,-87.8293,1.993,9.29,1111122 
DISL,ioos:station:DISL:BSCA:1,2016-03-03T20:00:00Z,30.3288,-87.8293,2.011,9.21,1111122 
DISL,ioos:station:DISL:BSCA:1,2016-03-03T20:30:00Z,30.3288,-87.8293,2.042,8.75,1111122 
DISL,ioos:station:DISL:BSCA:1,2016-03-03T21:00:00Z,30.3288,-87.8293,2.093,8.85,1111122 
DISL,ioos:station:DISL:BSCA:1,2016-03-03T21:30:00Z,30.3288,-87.8293,2.164,8.2,1111122 
DISL,ioos:station:DISL:BSCA:1,2016-03-03T22:00:00Z,30.3288,-87.8293,2.23,9.49,1111122 
DISL,ioos:station:DISL:BSCA:1,2016-03-03T22:30:00Z,30.3288,-87.8293,2.25,9.79,1111122 
DISL,ioos:station:DISL:BSCA:1,2016-03-03T23:00:00Z,30.3288,-87.8293,2.299,10.01,1111122 
DISL,ioos:station:DISL:BSCA:1,2016-03-03T23:30:00Z,30.3288,-87.8293,2.352,9.9,1111122 
DISL,ioos:station:DISL:BSCA:1,2016-03-04T00:00:00Z,30.3288,-87.8293,2.347,9.95,1111122 
DISL,ioos:station:DISL:BSCA:1,2016-03-04T00:30:00Z,30.3288,-87.8293,2.335,9.97,1111122 
DISL,ioos:station:DISL:BSCA:1,2016-03-04T01:00:00Z,30.3288,-87.8293,2.41,10.12,1111122 
DISL,ioos:station:DISL:BSCA:1,2016-03-04T01:30:00Z,30.3288,-87.8293,2.429,10.01,1111122 
DISL,ioos:station:DISL:BSCA:1,2016-03-04T02:00:00Z,30.3288,-87.8293,2.316,9.86,1111122 
DISL,ioos:station:DISL:BSCA:1,2016-03-04T02:30:00Z,30.3288,-87.8293,2.302,9.84,1111122 
DISL,ioos:station:DISL:BSCA:1,2016-03-04T03:00:00Z,30.3288,-87.8293,2.334,10.35,1111122 
DISL,ioos:station:DISL:BSCA:1,2016-03-04T03:30:00Z,30.3288,-87.8293,2.278,10.19,1111122 
DISL,ioos:station:DISL:BSCA:1,2016-03-04T04:00:00Z,30.3288,-87.8293,2.259,10.24,1111122 
DISL,ioos:station:DISL:BSCA:1,2016-03-04T04:30:00Z,30.3288,-87.8293,2.133,10.3,1111122 
DISL,ioos:station:DISL:BSCA:1,2016-03-04T05:00:00Z,30.3288,-87.8293,2.04,10.32,1111122 
DISL,ioos:station:DISL:BSCA:1,2016-03-04T05:30:00Z,30.3288,-87.8293,2.022,10.28,1111122 
DISL,ioos:station:DISL:BSCA:1,2016-03-04T06:00:00Z,30.3288,-87.8293,1.935,10.08,1111122 
DISL,ioos:station:DISL:BSCA:1,2016-03-04T06:30:00Z,30.3288,-87.8293,1.935,9.99,1111122 
DISL,ioos:station:DISL:BSCA:1,2016-03-04T07:00:00Z,30.3288,-87.8293,1.903,9.95,1111122 
DISL,ioos:station:DISL:BSCA:1,2016-03-04T07:30:00Z,30.3288,-87.8293,1.851,9.95,1111122 
DISL,ioos:station:DISL:BSCA:1,2016-03-04T08:00:00Z,30.3288,-87.8293,1.805,9.59,1111122 
DISL,ioos:station:DISL:BSCA:1,2016-03-04T08:30:00Z,30.3288,-87.8293,1.754,9.49,1111122 
DISL,ioos:station:DISL:BSCA:1,2016-03-04T09:00:00Z,30.3288,-87.8293,1.702,9.44,1111122 
DISL,ioos:station:DISL:BSCA:1,2016-03-04T09:30:00Z,30.3288,-87.8293,1.683,9.0,1111122 
DISL,ioos:station:DISL:BSCA:1,2016-03-04T10:00:00Z,30.3288,-87.8293,1.684,8.89,1111122 
DISL,ioos:station:DISL:BSCA:1,2016-03-04T10:30:00Z,30.3288,-87.8293,1.69,9.11,1111122 
DISL,ioos:station:DISL:BSCA:1,2016-03-04T11:00:00Z,30.3288,-87.8293,1.678,9.04,1111122 
DISL,ioos:station:DISL:BSCA:1,2016-03-04T11:30:00Z,30.3288,-87.8293,1.655,9.09,1111122 
DISL,ioos:station:DISL:BSCA:1,2016-03-04T12:00:00Z,30.3288,-87.8293,1.66,9.08,1111122 
DISL,ioos:station:DISL:BSCA:1,2016-03-04T12:30:00Z,30.3288,-87.8293,1.646,9.09,1111122 
DISL,ioos:station:DISL:BSCA:1,2016-03-04T13:00:00Z,30.3288,-87.8293,1.648,9.09,1111122 
DISL,ioos:station:DISL:BSCA:1,2016-03-04T13:30:00Z,30.3288,-87.8293,1.643,9.25,1111122 
DISL,ioos:station:DISL:BSCA:1,2016-03-04T14:00:00Z,30.3288,-87.8293,1.64,9.33,1111122 
DISL,ioos:station:DISL:BSCA:1,2016-03-04T14:30:00Z,30.3288,-87.8293,1.649,9.32,1111122 
DISL,ioos:station:DISL:BSCA:1,2016-03-04T15:00:00Z,30.3288,-87.8293,1.68,9.35,1111122 
DISL,ioos:station:DISL:BSCA:1,2016-03-04T15:30:00Z,30.3288,-87.8293,1.717,9.39,1111122 
DISL,ioos:station:DISL:BSCA:1,2016-03-04T16:00:00Z,30.3288,-87.8293,1.736,9.51,1111122 
DISL,ioos:station:DISL:BSCA:1,2016-03-04T16:30:00Z,30.3288,-87.8293,1.741,9.53,1111122 
DISL,ioos:station:DISL:BSCA:1,2016-03-04T17:00:00Z,30.3288,-87.8293,1.734,9.65,1111122 
DISL,ioos:station:DISL:BSCA:1,2016-03-04T17:30:00Z,30.3288,-87.8293,1.761,9.4,1111122 
DISL,ioos:station:DISL:BSCA:1,2016-03-04T18:00:00Z,30.3288,-87.8293,1.801,9.19,1111122 
DISL,ioos:station:DISL:BSCA:1,2016-03-04T18:30:00Z,30.3288,-87.8293,1.858,9.33,1111122 
DISL,ioos:station:DISL:BSCA:1,2016-03-04T19:00:00Z,30.3288,-87.8293,1.904,9.73,1111122 
DISL,ioos:station:DISL:BSCA:1,2016-03-04T19:30:00Z,30.3288,-87.8293,1.962,9.59,1111122 
DISL,ioos:station:DISL:BSCA:1,2016-03-04T20:00:00Z,30.3288,-87.8293,2.0,9.87,1111122 
DISL,ioos:station:DISL:BSCA:1,2016-03-04T20:30:00Z,30.3288,-87.8293,2.018,9.94,1111122 
DISL,ioos:station:DISL:BSCA:1,2016-03-04T21:00:00Z,30.3288,-87.8293,2.074,10.02,1111122 
DISL,ioos:station:DISL:BSCA:1,2016-03-04T21:30:00Z,30.3288,-87.8293,2.043,10.0,1111122 
DISL,ioos:station:DISL:BSCA:1,2016-03-04T22:00:00Z,30.3288,-87.8293,2.063,10.02,1111122 
DISL,ioos:station:DISL:BSCA:1,2016-03-04T22:30:00Z,30.3288,-87.8293,2.067,10.0,1111122 
DISL,ioos:station:DISL:BSCA:1,2016-03-04T23:00:00Z,30.3288,-87.8293,2.096,9.92,1111122 
DISL,ioos:station:DISL:BSCA:1,2016-03-04T23:30:00Z,30.3288,-87.8293,2.114,9.84,1111122 
DISL,ioos:station:DISL:BSCA:1,2016-03-05T00:00:00Z,30.3288,-87.8293,2.116,9.66,1111122 
DISL,ioos:station:DISL:BSCA:1,2016-03-05T00:30:00Z,30.3288,-87.8293,2.124,9.64,1111122 
DISL,ioos:station:DISL:BSCA:1,2016-03-05T01:00:00Z,30.3288,-87.8293,2.121,9.23,1111122 
DISL,ioos:station:DISL:BSCA:1,2016-03-05T01:30:00Z,30.3288,-87.8293,2.127,9.49,1111122 
DISL,ioos:station:DISL:BSCA:1,2016-03-05T02:00:00Z,30.3288,-87.8293,2.107,9.3,1111122 
DISL,ioos:station:DISL:BSCA:1,2016-03-05T02:30:00Z,30.3288,-87.8293,2.092,9.49,1111122 
DISL,ioos:station:DISL:BSCA:1,2016-03-05T03:00:00Z,30.3288,-87.8293,2.054,9.32,1111122 
DISL,ioos:station:DISL:BSCA:1,2016-03-05T03:30:00Z,30.3288,-87.8293,2.02,9.48,1111122 
DISL,ioos:station:DISL:BSCA:1,2016-03-05T04:00:00Z,30.3288,-87.8293,1.996,9.25,1111122 
DISL,ioos:station:DISL:BSCA:1,2016-03-05T04:30:00Z,30.3288,-87.8293,1.961,9.26,1111122 
DISL,ioos:station:DISL:BSCA:1,2016-03-05T05:00:00Z,30.3288,-87.8293,1.935,9.28,1111122 
DISL,ioos:station:DISL:BSCA:1,2016-03-05T05:30:00Z,30.3288,-87.8293,1.895,9.23,1111122 
DISL,ioos:station:DISL:BSCA:1,2016-03-05T06:00:00Z,30.3288,-87.8293,1.858,9.17,1111122 
DISL,ioos:station:DISL:BSCA:1,2016-03-05T06:30:00Z,30.3288,-87.8293,1.822,9.04,1111122 
DISL,ioos:station:DISL:BSCA:1,2016-03-05T07:00:00Z,30.3288,-87.8293,1.782,9.02,1111122 
DISL,ioos:station:DISL:BSCA:1,2016-03-05T07:30:00Z,30.3288,-87.8293,1.754,9.01,1111122 
DISL,ioos:station:DISL:BSCA:1,2016-03-05T08:00:00Z,30.3288,-87.8293,1.726,9.08,1111122 
DISL,ioos:station:DISL:BSCA:1,2016-03-05T08:30:00Z,30.3288,-87.8293,1.689,8.88,1111122 
DISL,ioos:station:DISL:BSCA:1,2016-03-05T09:00:00Z,30.3288,-87.8293,1.669,8.76,1111122 
DISL,ioos:station:DISL:BSCA:1,2016-03-05T09:30:00Z,30.3288,-87.8293,1.651,8.8,1111122 
DISL,ioos:station:DISL:BSCA:1,2016-03-05T10:00:00Z,30.3288,-87.8293,1.645,8.79,1111122 
DISL,ioos:station:DISL:BSCA:1,2016-03-05T10:30:00Z,30.3288,-87.8293,1.643,8.72,1111122 
DISL,ioos:station:DISL:BSCA:1,2016-03-05T11:00:00Z,30.3288,-87.8293,1.653,8.72,1111122 
DISL,ioos:station:DISL:BSCA:1,2016-03-05T11:30:00Z,30.3288,-87.8293,1.647,8.57,1111122 
DISL,ioos:station:DISL:BSCA:1,2016-03-05T12:00:00Z,30.3288,-87.8293,1.644,8.31,1111122 
DISL,ioos:station:DISL:BSCA:1,2016-03-05T12:30:00Z,30.3288,-87.8293,1.649,8.5,1111122 
DISL,ioos:station:DISL:BSCA:1,2016-03-05T13:00:00Z,30.3288,-87.8293,1.647,8.48,1111122 
DISL,ioos:station:DISL:BSCA:1,2016-03-05T13:30:00Z,30.3288,-87.8293,1.655,8.41,1111122 
DISL,ioos:station:DISL:BSCA:1,2016-03-05T14:00:00Z,30.3288,-87.8293,1.668,8.27,1111122 
DISL,ioos:station:DISL:BSCA:1,2016-03-05T14:30:00Z,30.3288,-87.8293,1.692,8.5,1111122 
DISL,ioos:station:DISL:BSCA:1,2016-03-05T15:00:00Z,30.3288,-87.8293,1.713,8.46,1111122 
DISL,ioos:station:DISL:BSCA:1,2016-03-05T15:30:00Z,30.3288,-87.8293,1.746,8.62,1111122 
DISL,ioos:station:DISL:BSCA:1,2016-03-05T16:00:00Z,30.3288,-87.8293,1.781,8.46,1111122 
DISL,ioos:station:DISL:BSCA:1,2016-03-05T16:30:00Z,30.3288,-87.8293,1.813,8.71,1111122 
DISL,ioos:station:DISL:BSCA:1,2016-03-05T17:00:00Z,30.3288,-87.8293,1.84,8.77,1111122 
DISL,ioos:station:DISL:BSCA:1,2016-03-05T17:30:00Z,30.3288,-87.8293,1.868,8.39,1111122 
DISL,ioos:station:DISL:BSCA:1,2016-03-05T18:00:00Z,30.3288,-87.8293,1.895,9.12,1111122 
DISL,ioos:station:DISL:BSCA:1,2016-03-05T18:30:00Z,30.3288,-87.8293,1.925,9.82,1111122 
DISL,ioos:station:DISL:BSCA:1,2016-03-05T19:00:00Z,30.3288,-87.8293,1.948,9.17,1111122 
DISL,ioos:station:DISL:BSCA:1,2016-03-05T19:30:00Z,30.3288,-87.8293,1.969,9.33,1111122 
DISL,ioos:station:DISL:BSCA:1,2016-03-05T20:00:00Z,30.3288,-87.8293,2.005,9.56,1111122 
DISL,ioos:station:DISL:BSCA:1,2016-03-05T20:30:00Z,30.3288,-87.8293,2.022,9.64,1111122 
DISL,ioos:station:DISL:BSCA:1,2016-03-05T21:00:00Z,30.3288,-87.8293,2.045,10.24,1111122 
DISL,ioos:station:DISL:BSCA:1,2016-03-05T21:30:00Z,30.3288,-87.8293,2.076,10.05,1111122 
DISL,ioos:station:DISL:BSCA:1,2016-03-05T22:00:00Z,30.3288,-87.8293,2.098,10.11,1111122 
DISL,ioos:station:DISL:BSCA:1,2016-03-05T22:30:00Z,30.3288,-87.8293,2.132,9.97,1111122 
DISL,ioos:station:DISL:BSCA:1,2016-03-05T23:00:00Z,30.3288,-87.8293,2.147,9.89,1111122 
DISL,ioos:station:DISL:BSCA:1,2016-03-05T23:30:00Z,30.3288,-87.8293,2.15,9.66,1111122 
DISL,ioos:station:DISL:BSCA:1,2016-03-06T00:00:00Z,30.3288,-87.8293,2.162,10.04,1111122 
DISL,ioos:station:DISL:BSCA:1,2016-03-06T00:30:00Z,30.3288,-87.8293,2.17,10.08,1111122 
DISL,ioos:station:DISL:BSCA:1,2016-03-06T01:00:00Z,30.3288,-87.8293,2.173,10.07,1111122 
DISL,ioos:station:DISL:BSCA:1,2016-03-06T01:30:00Z,30.3288,-87.8293,2.183,10.0,1111122 
DISL,ioos:station:DISL:BSCA:1,2016-03-06T02:00:00Z,30.3288,-87.8293,2.169,9.99,1111122 
DISL,ioos:station:DISL:BSCA:1,2016-03-06T02:30:00Z,30.3288,-87.8293,2.159,9.76,1111122 
DISL,ioos:station:DISL:BSCA:1,2016-03-06T03:00:00Z,30.3288,-87.8293,2.127,9.69,1111122 
DISL,ioos:station:DISL:BSCA:1,2016-03-06T03:30:00Z,30.3288,-87.8293,2.099,9.6,1111122 
DISL,ioos:station:DISL:BSCA:1,2016-03-06T04:00:00Z,30.3288,-87.8293,2.063,9.12,1111122 
DISL,ioos:station:DISL:BSCA:1,2016-03-06T04:30:00Z,30.3288,-87.8293,2.031,9.16,1111122 
DISL,ioos:station:DISL:BSCA:1,2016-03-06T05:00:00Z,30.3288,-87.8293,1.994,8.98,1111122 
DISL,ioos:station:DISL:BSCA:1,2016-03-06T05:30:00Z,30.3288,-87.8293,1.96,9.34,1111122 
DISL,ioos:station:DISL:BSCA:1,2016-03-06T06:00:00Z,30.3288,-87.8293,1.932,8.53,1111122 
DISL,ioos:station:DISL:BSCA:1,2016-03-06T06:30:00Z,30.3288,-87.8293,1.897,8.96,1111122 
DISL,ioos:station:DISL:BSCA:1,2016-03-06T07:00:00Z,30.3288,-87.8293,1.855,9.04,1111122 
DISL,ioos:station:DISL:BSCA:1,2016-03-06T07:30:00Z,30.3288,-87.8293,1.837,8.5,1111122 
DISL,ioos:station:DISL:BSCA:1,2016-03-06T08:00:00Z,30.3288,-87.8293,1.821,8.96,1111122 
DISL,ioos:station:DISL:BSCA:1,2016-03-06T08:30:00Z,30.3288,-87.8293,1.761,8.91,1111122 
DISL,ioos:station:DISL:BSCA:1,2016-03-06T09:00:00Z,30.3288,-87.8293,1.724,8.82,1111122 
DISL,ioos:station:DISL:BSCA:1,2016-03-06T09:30:00Z,30.3288,-87.8293,1.708,9.06,1111122 
DISL,ioos:station:DISL:BSCA:1,2016-03-06T10:00:00Z,30.3288,-87.8293,1.692,8.79,1111122 
DISL,ioos:station:DISL:BSCA:1,2016-03-06T10:30:00Z,30.3288,-87.8293,1.667,9.03,1111122 
DISL,ioos:station:DISL:BSCA:1,2016-03-06T11:00:00Z,30.3288,-87.8293,1.641,9.04,1111122 
DISL,ioos:station:DISL:BSCA:1,2016-03-06T11:30:00Z,30.3288,-87.8293,1.612,8.54,1111122 
DISL,ioos:station:DISL:BSCA:1,2016-03-06T12:00:00Z,30.3288,-87.8293,1.587,8.86,1111122 
DISL,ioos:station:DISL:BSCA:1,2016-03-06T12:30:00Z,30.3288,-87.8293,1.577,7.8,1111122 
DISL,ioos:station:DISL:BSCA:1,2016-03-06T13:00:00Z,30.3288,-87.8293,1.566,8.62,1111122 
DISL,ioos:station:DISL:BSCA:1,2016-03-06T13:30:00Z,30.3288,-87.8293,1.567,8.26,1111122 
DISL,ioos:station:DISL:BSCA:1,2016-03-06T14:00:00Z,30.3288,-87.8293,1.574,8.22,1111122 
DISL,ioos:station:DISL:BSCA:1,2016-03-06T14:30:00Z,30.3288,-87.8293,1.574,8.7,1111122 
DISL,ioos:station:DISL:BSCA:1,2016-03-06T15:00:00Z,30.3288,-87.8293,1.593,8.2,1111122 